Weather History for Hamilton, OH

Change the Weather History Date:

Sunday, April 7, 2013

  Actual Average (KCVG) Record (KCVG)
Temperature  
Mean Temperature 67 °F 51 °F  
Max Temperature 77 °F 62 °F 85 °F (2001)
Min Temperature 57 °F 41 °F 19 °F (1996)
Degree Days  
Heating Degree Days 0 14  
Month to date heating degree days 105  
Since 1 July heating degree days 4598  
Cooling Degree Days 2 0  
Month to date cooling degree days 0  
Year to date cooling degree days 0  
Growing Degree Days 17 (Base 50)    
Moisture  
Dew Point 43 °F    
Average Humidity 45    
Maximum Humidity 90    
Minimum Humidity 33    
Precipitation  
Precipitation 0.06 in 0.13 in 1.45 in (1972)
Month to date precipitation 0.87  
Year to date precipitation 10.64  
Snow  
Snow 0.00 in 0.00 in 1.70 in (1985)
Month to date snowfall 0.2  
Since 1 July snowfall 21.8  
Snow Depth -    
Sea Level Pressure  
Sea Level Pressure 29.93 in    
Wind  
Wind Speed 8 mph (SW)    
Max Wind Speed 13 mph    
Max Gust Speed 23 mph    
Visibility 10 miles    
Events Rain    
T = Trace of Precipitation, MM = Missing Value Source: NWS Daily Summary

Daily Weather History Graph

Daily Weather History Graph

Search for Another Location

Airport:

Trip Planner

Search our weather history database for the weather conditions in past years. The results will help you decide how hot, cold, wet, or windy it might be!

Date:

Astronomy

Apr. 07, 2013 Rise Set
Actual Time 7:12 AM EDT 8:08 PM EDT
Civil Twilight 6:45 AM EDT 8:35 PM EDT
Nautical Twilight 6:13 AM EDT 9:08 PM EDT
Astronomical Twilight 5:39 AM EDT 9:41 PM EDT
Moon 5:28 AM EDT (4/7) 5:40 PM EDT (4/7)
Length of Visible Light 13h 50m
Length of Day
12h 55m
Waning Crescent, 8% of the Moon is Illuminated
Apr 7
Waning Crescent
Apr 10
New
Apr 18
First Quarter
Apr 25
Full
May 2
Last Quarter

Hourly Weather History & Observations

Time (EDT) Temp. Dew Point Humidity Pressure Visibility Wind Dir Wind Speed Gust Speed Precip Events Conditions
12:53 AM 62.1 °F 35.1 °F 37% 29.90 in 10.0 mi SSW 4.6 mph - N/A   Clear
1:53 AM 63.0 °F 35.1 °F 35% 29.89 in 10.0 mi SSW 11.5 mph 19.6 mph N/A   Scattered Clouds
2:53 AM 62.1 °F 35.1 °F 37% 29.88 in 10.0 mi SSW 8.1 mph 20.7 mph N/A   Partly Cloudy
3:53 AM 61.0 °F 35.1 °F 38% 29.86 in 10.0 mi South 11.5 mph 18.4 mph N/A   Clear
4:53 AM 60.1 °F 36.0 °F 41% 29.86 in 10.0 mi South 9.2 mph - N/A   Clear
5:53 AM 60.1 °F 37.0 °F 42% 29.86 in 10.0 mi SSW 6.9 mph - N/A   Clear
6:53 AM 60.1 °F 37.9 °F 44% 29.88 in 10.0 mi SW 8.1 mph - N/A   Partly Cloudy
7:53 AM 60.1 °F 37.9 °F 44% 29.91 in 10.0 mi SW 5.8 mph - N/A   Mostly Cloudy
8:53 AM 62.1 °F 39.9 °F 44% 29.92 in 10.0 mi SW 9.2 mph - N/A   Mostly Cloudy
9:53 AM 64.9 °F 41.0 °F 42% 29.93 in 10.0 mi SW 10.4 mph 16.1 mph N/A   Scattered Clouds
10:53 AM 66.0 °F 42.1 °F 42% 29.93 in 10.0 mi WSW 10.4 mph 23.0 mph N/A   Mostly Cloudy
11:53 AM 70.0 °F 44.1 °F 39% 29.94 in 10.0 mi WSW 12.7 mph 21.9 mph N/A   Scattered Clouds
12:53 PM 73.9 °F 45.0 °F 35% 29.93 in 10.0 mi SW 12.7 mph 20.7 mph N/A   Clear
1:53 PM 73.9 °F 45.0 °F 35% 29.93 in 10.0 mi WSW 10.4 mph 17.3 mph N/A   Mostly Cloudy
2:53 PM 75.0 °F 44.1 °F 33% 29.93 in 10.0 mi West 12.7 mph 21.9 mph N/A   Scattered Clouds
3:53 PM 75.9 °F 46.0 °F 35% 29.93 in 10.0 mi SSW 5.8 mph - N/A   Mostly Cloudy
4:53 PM 73.0 °F 45.0 °F 37% 29.93 in 10.0 mi WSW 8.1 mph - N/A   Overcast
5:53 PM 72.0 °F 44.1 °F 37% 29.94 in 10.0 mi West 9.2 mph 17.3 mph N/A   Overcast
6:53 PM 72.0 °F 44.1 °F 37% 29.95 in 10.0 mi West 4.6 mph - N/A   Mostly Cloudy
7:53 PM 69.1 °F 45.0 °F 42% 29.95 in 10.0 mi Calm Calm - N/A   Overcast
8:53 PM 64.9 °F 52.0 °F 63% 29.96 in 10.0 mi Calm Calm - 0.00 in   Partly Cloudy
9:53 PM 60.1 °F 50.0 °F 69% 29.98 in 10.0 mi Calm Calm - N/A   Mostly Cloudy
10:53 PM 59.0 °F 51.1 °F 75% 30.00 in 10.0 mi SSE 3.5 mph - N/A   Mostly Cloudy
11:53 PM 57.9 °F 55.0 °F 90% 30.01 in 5.0 mi SSW 6.9 mph - 0.06 in Rain Rain